Location: Austin
(30.3000°N, 97.7500°W)
Time: 04:04:31
(UTC-05:00)

YAOGAN 1 - Pass Details

Date: 18 March 2023
Orbit: 616 x 618 km, 97.8° (Epoch: 01 April)

Event Time Altitude Azimuth Distance (km) Brightness Sun altitude
Rises 20:02:18 0° 151° (SSE) 2,874 5.7 -5.4°
Reaches altitude 10° 20:04:33 10° 144° (SE) 1,972 4.8 -5.9°
Maximum altitude 20:08:35 41° 74° (ENE) 893 3.0 -6.8°
Drops below altitude 10° 20:12:38 10° 4° (N) 1,982 5.2 -7.6°
Sets 20:14:55 0° 358° (N) 2,890 6.1 -8.1°
